sat.trackr.live / text

‹ back to catalog

STARLINK-35310

NORAD 66183 · 2025-243G

PAYLOAD ACTIVE UNKNOWN

§ Identity

Operator
Country
US
Launch date
2025-10-26
Launch site
AFETR
Launch vehicle
Mass (kg)
RCS (m²)

Purposes: comms

External: N2YO · Heavens-Above · Gunter

§ Orbital elements

Epoch: 2026-09-20T13:46:57.605376Z

Period
93.85 min
Inclination
53.1581°
Eccentricity
0.0000591
Mean motion
15.34417743 rev/d
Perigee alt
462.2 km
Apogee alt
463.1 km
Semi-major
6,840.8 km
B*
2.3044e-4
RAAN
57.0441°
Arg perigee
102.4752°
Mean anomaly
257.6317°
Rev number
5,053

§ Raw data

STARLINK-353101 66183U 25243G   26263.57427784  .00007422  00000+0  23044-3 0  99932 66183  53.1581  57.0441 0000591 102.4752 257.6317 15.34417743 50539

JSON: /api/v1/satellites/66183 · /tle

For live sub-satellite position, see the globe view (requires WebGL).

§ Visibility from observer

Set your observer location to see the next 7 days of passes ≥ 10°. The values pass through the URL so the page stays shareable.

No JS? Fill the form by hand. The geolocation button needs JavaScript.